Погода в Хара-Алдане

Россия / Республика Саха (Якутия)     63°15′31″N   133°13′35″E
темп.,
°C
ветер,
м/с
пор.,
м/с
влажн.,
%
обл.,
%
осадки,
мм/ч
давл.,
гПа
погр.,
м
18 августа, чт
чт1800:00+13ююз3797100 3.4 994493
03:00+11ю389851 4.1 995356
06:00+11ююз269751 0.0 996277
09:00+14юз238482 0.3 996668
12:00+16з237363 1.3 9961132
15:00+16с227658 2.4 996487
18:00+15св11855 1.4 99752
21:00+11ссв00916 1.5 99710
19 августа, пт
пт1900:00+10зюз1195100 0.0 99710
03:00+9з2297100 0.0 99745
06:00+10з2597100 0.0 997171
09:00+14з348498 0.0 996463
12:00+17зсз3461100 0.0 9961128
15:00+18зсз3454100 0.0 9951458
18:00+16зюз2572100 0.0 996170
21:00+12зюз2591100 0.1 99796
20 августа, сб
сб2000:00+11зюз2696100 0.0 997142
03:00+10зюз2598100 0.0 998157
06:00+10зюз2495100 0.0 1000187
09:00+13зюз2379100 0.0 1001662
12:00+15зюз2371100 0.4 1001998
15:00+16з116080 0.6 10011123
18:00+16в116939 0.1 100289
21:00+11в22927 0.3 100317
21 августа, вс
вс2100:00+9вюв11955 0.0 100310
03:00+8сз00967 0.0 100410
06:00+9з12945 0.0 100468
09:00+14зсз237718 0.0 1003524
12:00+17з3361100 0.1 10021228
15:00+17зсз4454100 0.1 10011433
18:00+14зсз577364 0.0 1001588
21:00+10з3108858 0.0 1001358
22 августа, пн
пн2200:00+9з41097100 0.0 1000332
03:00+8з3898100 0.0 999268
06:00+8з3591100 0.0 1000276
09:00+12з2273100 0.0 1000422
12:00+16з1159100 0.0 1001698
15:00+18з1255100 0.0 1001949
18:00+16ю1170100 0.0 100211
21:00+12з2287100 0.0 100340